Location: Sperry Observatory
(40.6664°N, 74.3236°W)
Time: 20:38:39
(UTC-04:00)

Amateur Radio Satellites - All Passes

Search period start: 19 April 2014 20:08
Search period end: 20 April 2014 20:08
Location: Sperry Observatory, 40.6664°N, 74.3236°W

Satellite Date Start Highest point End Downlink Frequencies (MHz)
Time Altitude Azimuth
SO-67 19 Apr 20:17:20 20:20:00 20° 265° (W) 20:22:40 435.3500 MHz FM
JAS-2 19 Apr 20:26:23 20:31:01 24° 265° (W) 20:35:21 435.800 - 435.900 CW/SSB, 435.910 FM
Oscar 11 19 Apr 20:36:11 20:37:30 11° 62° (ENE) 20:38:48 145.825 FM, Beacon 2401.500 USB
ISS 19 Apr 20:41:45 20:44:31 23° 22° (NNE) 20:47:16 145.800 FM
Saudisat 1A 19 Apr 21:01:36 21:05:28 30° 246° (WSW) 21:09:17 436.775 MHz
HO-68 19 Apr 21:04:56 21:12:02 76° 71° (ENE) 21:19:11 435.675 MHz FM
STRAND 1 19 Apr 21:23:00 21:25:28 14° 300° (WNW) 21:27:56 ?
FUNcube-1 19 Apr 22:00:29 22:04:04 28° 70° (ENE) 22:07:37 145.950 - 145.970 MHz USB
Oscar 11 19 Apr 22:08:48 22:13:05 70° 258° (WSW) 22:17:25 145.825 FM, Beacon 2401.500 USB
MaSat-1 19 Apr 22:14:56 22:17:36 32° 298° (WNW) 22:20:00 437.345 MHz
ISS 19 Apr 22:18:10 22:21:30 62° 220° (SW) 22:24:48 145.800 FM
HO-68 19 Apr 22:55:34 23:00:23 19° 269° (W) 23:05:15 435.675 MHz FM
PCSat 19 Apr 23:27:10 23:30:04 15° 103° (ESE) 23:32:57 145.825 MHz
FUNcube-1 19 Apr 23:37:06 23:40:28 23° 265° (W) 23:43:49 145.950 - 145.970 MHz USB
SO-50 19 Apr 23:42:50 23:46:53 29° 48° (NE) 23:50:58 436.795 FM
Sapphire 20 Apr 00:22:54 00:28:00 44° 112° (ESE) 00:33:08 437.095 MHz 1200 baud AX-25 AFSK
OPAL 20 Apr 01:05:54 01:06:39 10° 55° (NE) 01:07:25 ?
PCSat 20 Apr 01:07:25 01:12:48 73° 300° (WNW) 01:18:14 145.825 MHz
SO-50 20 Apr 01:23:14 01:27:29 35° 245° (WSW) 01:31:47 436.795 FM
Oscar 10/S400 20 Apr 01:48:14 02:03:39 23° 131° (SE) 02:34:33 145.825 - 145.975 CW/USB, Beacon 145.810 USB
UOSAT-12 20 Apr 02:03:31 02:07:57 38° 51° (NE) 02:12:21 437.025 FM, 437.400 FM
Sapphire 20 Apr 02:06:58 02:11:35 28° 310° (NW) 02:16:14 437.095 MHz 1200 baud AX-25 AFSK
AO-27 20 Apr 02:10:26 02:14:23 22° 94° (E) 02:18:19 436.795 MHz FM
ITAMSAT 1 20 Apr 02:20:43 02:25:04 27° 95° (E) 02:29:23 435.822 SSB
AO-Echo 20 Apr 02:23:34 02:27:10 21° 93° (E) 02:30:43 ?
Oscar 19 20 Apr 02:24:00 02:29:08 56° 101° (E) 02:34:13 437.125 CW, 437.150 USB
KITSAT 1 20 Apr 02:24:08 02:31:40 44° 110° (ESE) 02:39:13 435.175 FM
Oscar 16 20 Apr 02:32:19 02:37:32 72° 102° (ESE) 02:42:43 437.025 USB, Beacon 2401.1428
OPAL 20 Apr 02:39:38 02:44:38 78° 72° (ENE) 02:49:45 ?
PCSat 20 Apr 02:54:31 02:57:12 14° 320° (NW) 02:59:53 145.825 MHz
TMSAT-1 20 Apr 02:54:48 02:56:49 12° 89° (E) 02:58:49 436.925 FM
Uribyol 2 20 Apr 03:08:26 03:13:38 81° 104° (ESE) 03:18:49 436.500 FM
UOSAT-12 20 Apr 03:44:03 03:47:56 26° 248° (WSW) 03:51:46 437.025 FM, 437.400 FM
Gurwin Techsat 1B 20 Apr 03:44:12 03:49:24 53° 100° (E) 03:54:33 435.225 FM
AO-27 20 Apr 03:49:11 03:54:05 44° 290° (WNW) 03:58:58 436.795 MHz FM
ITAMSAT 1 20 Apr 03:59:54 04:04:36 36° 291° (WNW) 04:09:18 435.822 SSB
AO-Echo 20 Apr 04:01:41 04:06:06 38° 290° (WNW) 04:10:26 ?
Oscar 19 20 Apr 04:04:28 04:08:01 19° 297° (WNW) 04:11:34 437.125 CW, 437.150 USB
Oscar 16 20 Apr 04:13:24 04:16:16 15° 299° (WNW) 04:19:08 437.025 USB, Beacon 2401.1428
KITSAT 1 20 Apr 04:19:20 04:27:02 45° 310° (NW) 04:34:47 435.175 FM
Uosat F 20 Apr 04:20:32 04:24:50 28° 96° (E) 04:29:07 435.120 FM
OPAL 20 Apr 04:22:21 04:24:06 12° 269° (W) 04:25:53 ?
TMSAT-1 20 Apr 04:32:01 04:37:20 80° 285° (WNW) 04:42:36 436.925 FM
Uribyol 2 20 Apr 04:50:01 04:52:25 13° 300° (WNW) 04:54:49 436.500 FM
AO-7 20 Apr 04:51:49 04:59:32 40° 99° (E) 05:07:12 29.400 - 29.500 MHz
JAS-1B 20 Apr 04:53:25 04:59:05 71° 103° (ESE) 05:05:01 435.800 - 435.900 CW/SSB
AO-40 20 Apr 04:53:51 10:16:36 37° 180° (S) 17:11:02 Beacon 2401.320
STRAND 1 20 Apr 05:21:35 05:24:05 14° 60° (ENE) 05:26:34 ?
Gurwin Techsat 1B 20 Apr 05:25:08 05:28:57 21° 297° (WNW) 05:32:46 435.225 FM
RS-15 20 Apr 05:34:58 05:43:48 27° 103° (ESE) 05:52:23 29.354 - 29.394 USB, Beacon 29.352 USB
Uosat F 20 Apr 05:59:11 06:03:36 32° 292° (WNW) 06:08:00 435.120 FM
TMSAT-1 20 Apr 06:15:16 06:16:21 11° 302° (WNW) 06:17:27 436.925 FM
KITSAT 1 20 Apr 06:20:37 06:24:53 15° 336° (NNW) 06:29:09 435.175 FM
MaSat-1 20 Apr 06:37:54 06:40:32 28° 62° (ENE) 06:43:33 437.345 MHz
Hamsat 20 Apr 06:43:13 06:47:14 36° 97° (E) 06:51:15 145.90 MHz
AO-7 20 Apr 06:44:33 06:52:21 47° 297° (WNW) 07:00:09 29.400 - 29.500 MHz
JAS-1B 20 Apr 06:46:01 06:49:11 15° 301° (WNW) 06:52:23 435.800 - 435.900 CW/SSB
STRAND 1 20 Apr 06:57:30 07:02:36 77° 257° (WSW) 07:07:44 ?
JAS-2 20 Apr 07:33:10 07:38:14 38° 99° (E) 07:43:47 435.800 - 435.900 CW/SSB, 435.910 FM
SO-67 20 Apr 07:41:35 07:44:36 26° 96° (E) 07:47:35 435.3500 MHz FM
RS-15 20 Apr 07:43:38 07:55:00 79° 304° (WNW) 08:06:02 29.354 - 29.394 USB, Beacon 29.352 USB
PCSat 20 Apr 08:13:47 08:16:53 15° 41° (NE) 08:19:57 145.825 MHz
MaSat-1 20 Apr 08:17:07 08:18:49 14° 251° (WSW) 08:20:39 437.345 MHz
Hamsat 20 Apr 08:19:46 08:22:59 21° 293° (WNW) 08:26:12 145.90 MHz
KITSAT 1 20 Apr 08:23:33 08:24:45 10° 8° (N) 08:25:58 435.175 FM
HO-68 20 Apr 08:35:52 08:38:57 13° 88° (E) 08:42:01 435.675 MHz FM
AO-7 20 Apr 08:42:18 08:43:03 10° 319° (NW) 08:43:48 29.400 - 29.500 MHz
Sapphire 20 Apr 09:11:08 09:16:05 35° 52° (NE) 09:21:00 437.095 MHz 1200 baud AX-25 AFSK
SO-67 20 Apr 09:15:14 09:17:33 17° 292° (WNW) 09:19:51 435.3500 MHz FM
JAS-2 20 Apr 09:18:42 09:23:14 28° 293° (WNW) 09:28:06 435.800 - 435.900 CW/SSB, 435.910 FM
PANSAT 20 Apr 09:54:41 09:56:36 13° 177° (S) 09:58:30 not established
PCSat 20 Apr 09:55:42 10:01:09 83° 61° (ENE) 10:06:34 145.825 MHz
Oscar 11 20 Apr 09:57:31 10:00:53 22° 94° (E) 10:04:14 145.825 FM, Beacon 2401.500 USB
RS-15 20 Apr 10:00:15 10:09:23 28° 331° (NNW) 10:18:25 29.354 - 29.394 USB, Beacon 29.352 USB
KITSAT 1 20 Apr 10:17:32 10:23:52 24° 37° (NE) 10:30:10 435.175 FM
HO-68 20 Apr 10:20:25 10:27:38 81° 106° (ESE) 10:34:50 435.675 MHz FM
Sapphire 20 Apr 10:54:37 10:59:27 34° 250° (WSW) 11:04:16 437.095 MHz 1200 baud AX-25 AFSK
Saudisat 1A 20 Apr 11:07:07 11:11:34 74° 120° (ESE) 11:16:02 436.775 MHz
FUNcube-1 20 Apr 11:25:24 11:29:39 64° 101° (ESE) 11:33:58 145.950 - 145.970 MHz USB
Oscar 11 20 Apr 11:33:13 11:37:07 33° 290° (WNW) 11:41:01 145.825 FM, Beacon 2401.500 USB
PANSAT 20 Apr 11:34:56 11:36:03 11° 190° (S) 11:37:10 not established
PCSat 20 Apr 11:41:33 11:43:48 13° 258° (WSW) 11:46:03 145.825 MHz
HO-68 20 Apr 12:09:32 12:14:31 21° 304° (NW) 12:19:30 435.675 MHz FM
KITSAT 1 20 Apr 12:12:18 12:20:28 86° 60° (ENE) 12:28:32 435.175 FM
Oscar 16 20 Apr 12:13:15 12:15:32 13° 59° (ENE) 12:17:49 437.025 USB, Beacon 2401.1428
RS-15 20 Apr 12:19:35 12:26:58 20° 7° (N) 12:34:20 29.354 - 29.394 USB, Beacon 29.352 USB
Saudisat 1A 20 Apr 12:48:55 12:51:41 16° 319° (NW) 12:54:28 436.775 MHz
Uribyol 2 20 Apr 12:49:31 12:52:24 15° 61° (ENE) 12:55:17 436.500 FM
FUNcube-1 20 Apr 13:03:59 13:05:33 12° 297° (WNW) 13:07:09 145.950 - 145.970 MHz USB
AO-27 20 Apr 13:28:11 13:32:46 33° 68° (ENE) 13:37:22 436.795 MHz FM
Gurwin Techsat 1B 20 Apr 13:30:02 13:31:12 11° 57° (ENE) 13:32:22 435.225 FM
AO-Echo 20 Apr 13:35:44 13:40:14 30° 68° (ENE) 13:44:39 ?
ITAMSAT 1 20 Apr 13:38:23 13:43:10 40° 69° (ENE) 13:47:58 435.822 SSB
Oscar 19 20 Apr 13:40:34 13:45:41 78° 75° (ENE) 13:50:52 437.125 CW, 437.150 USB
Oscar 16 20 Apr 13:49:01 13:54:09 82° 256° (WSW) 13:59:21 437.025 USB, Beacon 2401.1428
JAS-1B 20 Apr 13:53:28 13:55:08 11° 55° (NE) 13:56:45 435.800 - 435.900 CW/SSB
AO-7 20 Apr 14:04:42 14:07:21 12° 43° (NE) 14:10:00 29.400 - 29.500 MHz
KITSAT 1 20 Apr 14:09:34 14:14:48 19° 258° (WSW) 14:20:01 435.175 FM
TMSAT-1 20 Apr 14:14:35 14:18:22 20° 63° (ENE) 14:22:09 436.925 FM
Uribyol 2 20 Apr 14:26:08 14:31:17 70° 258° (WSW) 14:36:27 436.500 FM
RS-15 20 Apr 14:33:33 14:43:38 39° 40° (NE) 14:53:50 29.354 - 29.394 USB, Beacon 29.352 USB
OPAL 20 Apr 14:50:40 14:54:36 21° 95° (E) 14:58:30 ?
ISS 20 Apr 15:00:19 15:03:34 51° 139° (SE) 15:06:50 145.800 FM
Gurwin Techsat 1B 20 Apr 15:04:58 15:10:16 80° 75° (ENE) 15:15:36 435.225 FM
AO-27 20 Apr 15:07:44 15:12:15 30° 264° (W) 15:16:48 436.795 MHz FM
AO-Echo 20 Apr 15:14:12 15:18:54 33° 263° (W) 15:23:31 ?
ITAMSAT 1 20 Apr 15:18:36 15:22:46 25° 265° (W) 15:26:58 435.822 SSB
Oscar 10/S400 20 Apr 15:23:02 16:03:49 12° 275° (W) 16:57:34 145.825 - 145.975 CW/USB, Beacon 145.810 USB
Oscar 19 20 Apr 15:23:43 15:25:36 12° 271° (W) 15:27:30 437.125 CW, 437.150 USB
Uosat F 20 Apr 15:33:26 15:38:05 39° 69° (ENE) 15:42:44 435.120 FM
JAS-1B 20 Apr 15:36:50 15:44:47 63° 72° (ENE) 15:51:25 435.800 - 435.900 CW/SSB
SO-50 20 Apr 15:37:33 15:42:01 82° 121° (ESE) 15:46:33 436.795 FM
AO-7 20 Apr 15:50:19 15:58:15 53° 65° (ENE) 16:06:12 29.400 - 29.500 MHz
TMSAT-1 20 Apr 15:52:43 15:57:52 53° 260° (W) 16:03:03 436.925 FM
UOSAT-12 20 Apr 16:17:53 16:19:09 11° 106° (ESE) 16:20:25 437.025 FM, 437.400 FM
OPAL 20 Apr 16:28:41 16:33:41 48° 291° (WNW) 16:38:40 ?
ISS 20 Apr 16:37:38 16:40:28 25° 336° (NNW) 16:43:20 145.800 FM
RS-15 20 Apr 16:45:54 16:56:42 68° 244° (WSW) 17:07:50 29.354 - 29.394 USB, Beacon 29.352 USB
Gurwin Techsat 1B 20 Apr 16:48:48 16:50:50 12° 271° (W) 16:52:53 435.225 FM
Uosat F 20 Apr 17:12:58 17:16:58 24° 265° (W) 17:20:59 435.120 FM
SO-50 20 Apr 17:20:36 17:23:11 15° 320° (NW) 17:25:47 436.795 FM
JAS-1B 20 Apr 17:29:21 17:35:35 24° 265° (W) 17:41:07 435.800 - 435.900 CW/SSB
Hamsat 20 Apr 17:36:55 17:40:21 25° 69° (ENE) 17:43:48 145.90 MHz
AO-7 20 Apr 17:43:57 17:51:16 34° 263° (W) 17:58:38 29.400 - 29.500 MHz
JAS-2 20 Apr 17:48:02 17:51:10 15° 62° (ENE) 17:54:11 435.800 - 435.900 CW/SSB, 435.910 FM
UOSAT-12 20 Apr 17:54:03 17:58:36 79° 303° (WNW) 18:03:16 437.025 FM, 437.400 FM
ISS 20 Apr 18:16:29 18:18:07 13° 357° (N) 18:19:45 145.800 FM
RS-15 20 Apr 19:02:33 19:06:53 13° 264° (W) 19:11:17 29.354 - 29.394 USB, Beacon 29.352 USB
HO-68 20 Apr 19:06:57 19:08:59 11° 49° (NE) 19:11:01 435.675 MHz FM
STRAND 1 20 Apr 19:08:43 19:13:25 36° 98° (E) 19:18:05 ?
Hamsat 20 Apr 19:12:40 19:16:14 27° 265° (W) 19:19:51 145.90 MHz
JAS-2 20 Apr 19:29:58 19:35:48 71° 257° (WSW) 19:41:09 435.800 - 435.900 CW/SSB, 435.910 FM
Saudisat 1A 20 Apr 19:34:25 19:38:45 53° 54° (NE) 19:43:01 436.775 MHz
UOSAT-12 20 Apr 19:37:21 19:39:33 13° 323° (NW) 19:41:46 437.025 FM, 437.400 FM
SO-67 20 Apr 19:47:31 19:50:54 49° 261° (W) 19:54:19 435.3500 MHz FM
ISS 20 Apr 19:53:29 19:55:53 18° 17° (NNE) 19:58:17 145.800 FM
